星链-37614(STARLINK-37614)

导读

STARLINK-37614(NORAD编号69041)是SpaceX星链(Starlink)星座中的一颗通信卫星,隶属于SpaceX公司主导的全球近地轨道卫星互联网项目。星链计划旨在通过部署数千颗低轨卫星,为全球提供高速泛在的天基互联网接入服务,尤其覆盖网络基础设施薄弱区域。该卫星运行于近地轨道,纳入星链大规模星座组网体系,承担卫星通信转发功能,支持全球范围内的宽带互联网接入服务,是星链星座持续扩展组网中的单元卫星,推动星座实现全球覆盖的服务目标。

基本信息
目录编号:
69041
目录名称:
STARLINK-37614
国际标识:
2026-101S
轨道中心:
EARTH
卫星名称:
星链-37614
卫星全名:
星链-37614(STARLINK-37614)
卫星状态:
在轨 (已飞行128 天)
发射日期:
2026-05-06 UTC
国别 :
美国 (US)
星等 :
--
该卫星已列入 空间交会检测服务 Space Conjunction Data Service (SCDS) ,当前飞行风险评估等级: 无高风险
轨道信息
数据来源 国际轨道数据 AOE轨道数据
星历时间 2026-09-10T21:24:17+0800
21小时前
查看轨道信息
2026-09-04T23:00:00+0800
6天前
查看轨道信息
半长轴 6843.658km 6843.674km
偏心率 0.0003192 0.0002393
轨道倾角 97.284° 97.287°
近地点辐角 108.684° 103.179°
升交点赤经 107.160° 101.310°
平近点角 251.475° 283.054°
近地点 463.336km 463.899km
远地点 467.706km 467.175km
周期 93.906分钟 93.906分钟
每日圈数 15.334525 15.334472
详细信息
固有亮度:
5
最大亮度:
2.5
卫星平台:
Starlink V1.0
覆盖范围:
全球
运营商:
太空探索技术公司
运营商所在国:
美国
制造商(研发单位):
太空探索技术公司
制造商所在国:
美国
使用方式:
暂无
卫星简介
Starlink 计划是 SpaceX 推出的全球卫星互联网项目,通过发射低轨道卫星,为全球尤其是偏远地区提供高速、低延迟的互联网服务。自 2019 年起,Starlink 已部署数千颗卫星,旨在缩小全球数字鸿沟,推动互联网普及。该项目还为军事、航空等行业提供通信支持,带来广泛经济效益。
2D轨道图
3D轨道图
轨道高度分析图
轨道倾角分析图
轨道综合分析图
查看轨道综合分析图
交会数据列表
事件ID 空间交会对象 最接近时刻(TCA) 交会距离 交会风险概率(CRP) 交会风险指数(CRI) 操作
CDM_260912-055406-278406-904121
2026-09-12T
05:54:36+0000
1.571 km
极远距离
4.239734E-6 低风险 0.48
CDM_260913-100404-704106-904121
2026-09-13T
10:04:07+0000
2.162 km
极远距离
2.366174E-6 低风险 0.42
CDM_260912-095105-480606-904121
2026-09-12T
09:51:36+0000
2.175 km
极远距离
2.279173E-6 低风险 0.42
CDM_260913-052405-196006-904121
2026-09-13T
05:24:23+0000
2.205 km
极远距离
2.162305E-6 低风险 0.42
CDM_260912-134305-416006-904121
2026-09-12T
13:43:14+0000
2.091 km
极远距离
2.154472E-6 低风险 0.42
CDM_260912-022104-866806-904122
2026-09-12T
02:21:54+0000
2.866 km
极远距离
1.395442E-6 低风险 0.38
CDM_260913-035204-764806-904121
2026-09-13T
03:52:20+0000
2.884 km
极远距离
1.375816E-6 低风险 0.38
与全量物体交会距离演化趋势
与全量物体交会风险概率演化趋势